Plauen

Germany     50˚29′48″N   12˚08′36″E
temp.,
°C
wind,
m/s
gust,
m/s
humid.,
%
clouds,
%
prec.,
mm/h
press.,
hPa
HPBL,
m
29 november, sun
sun2901:00−3˚ese119030 0.0 102670
04:00−3˚nne128828 0.0 102529
07:00−3˚nne249618 0.0 1026136
10:00−1˚nne248523 0.0 1026300
13:00+1˚nne348237 0.0 1026448
16:00nne249799 0.1 1025256
19:00ne239599 0.1 1026238
22:00nnw119598 0.1 1027135
30 november, mon
mon3001:00−1˚nnw129498 0.1 1027176
04:00−1˚n118895 0.0 1026239
07:00−1˚n128997 0.1 1028189
10:00sw1177100 0.0 1028423
13:00+1˚sw236999 0.1 1027698
16:00−1˚ssw238238 0.0 102546
19:00−2˚s368919 0.0 1025152
22:00−2˚s410850 0.0 1024311
1 december, tue
tue101:00−2˚s5118120 0.0 1022400
04:00−1˚s51177100 0.0 1019460
07:00−2˚s61090100 0.5 1019409
10:00−1˚s5985100 0.3 1018381
13:00+1˚s578099 0.3 1018371
16:00sse368690 0.0 1017253
19:00−1˚sse238995 0.0 101995
22:00−1˚sse128599 0.0 102078
2 december, wed
wed201:00−2˚ne118897 0.0 102121
04:00−2˚e019270 0.0 102021
07:00−3˚sse119240 0.0 102124
10:00−1˚s12762 0.0 1021187
13:00+1˚nne01571 0.0 1019401
16:00−2˚ne11830 0.0 101821
19:00−4˚s22810 0.0 101828
22:00−4˚sse23840 0.0 101875
3 december, thu
thu301:00−4˚s238610 0.0 1017121
04:00−5˚sse248942 0.0 1015132
07:00−5˚s249025 0.0 1014146
10:00−3˚s35778 0.0 1013318
13:00−1˚s356610 0.0 1010428
16:00−3˚sse227640 0.0 100833
19:00−4˚sse238332 0.0 100797
22:00−3˚s129044 0.0 100578